Location: Appleton
(44.2618°N, 88.4157°W)
Time: 19:13:09
(UTC+00:00)

deb Explorer IX - All Passes

Search period start: 04 March 2021 00:00
Search period end: 14 March 2021 00:00
Orbit: 537 x 1102 km, 38.8° (Epoch: 04 March)

Date Brightness Start Highest point End Pass type
(mag) Time Alt. Az. Time Alt. Az. Time Alt. Az.
04 Mar - 07:45:37 10° SSW 07:48:45 21° SSE 07:51:51 10° ESE night (unlit)
04 Mar - 09:31:05 10° WSW 09:34:51 38° S 09:38:45 10° ESE visible
04 Mar - 11:17:22 10° WSW 11:21:04 32° SSW 11:25:05 10° SE visible
04 Mar - 13:04:47 10° WSW 13:07:09 14° SSW 13:09:42 10° S daylight
05 Mar - 07:21:53 10° SSW 07:25:05 21° SSE 07:28:12 10° ESE night (unlit)
05 Mar - 09:07:25 10° WSW 09:11:11 38° S 09:15:01 10° ESE visible
05 Mar - 10:53:45 10° WSW 10:57:23 31° SSW 11:01:16 10° SE visible
05 Mar - 12:41:16 10° WSW 12:43:27 14° SSW 12:45:44 10° S daylight
06 Mar - 06:58:07 10° SSW 07:01:24 22° SSE 07:04:33 10° ESE night (unlit)
06 Mar - 08:43:44 10° WSW 08:47:31 38° S 08:51:18 10° ESE visible
06 Mar - 10:30:07 10° WSW 10:33:43 31° SSW 10:37:29 10° SE visible
06 Mar - 12:17:46 10° SW 12:19:45 13° SSW 12:21:47 10° S daylight
07 Mar - 06:34:19 10° SSW 06:37:43 22° SSE 06:40:55 10° ESE night (unlit)
07 Mar - 08:20:01 10° WSW 08:23:51 38° S 08:27:37 10° ESE night (unlit)
07 Mar - 10:06:28 10° WSW 10:10:02 30° SSW 10:13:43 10° SE visible
07 Mar - 11:54:15 10° SW 11:56:01 12° SSW 11:57:51 10° S visible
08 Mar - 06:10:29 10° SSW 06:14:01 23° SSE 06:17:18 10° ESE night (unlit)
08 Mar - 07:56:16 10° WSW 08:00:10 38° S 08:03:56 10° ESE night (unlit)
08 Mar - 09:42:47 10° WSW 09:46:21 30° SSW 09:49:58 10° SE visible
08 Mar - 11:30:43 10° SW 11:32:19 12° SSW 11:33:56 10° S visible
09 Mar - 05:46:38 10° SW 05:50:18 24° SSE 05:53:42 10° ESE night (unlit)
09 Mar - 07:32:29 10° WSW 07:36:29 38° S 07:40:16 10° ESE night (unlit)
09 Mar - 09:19:05 10° WSW 09:22:40 30° SSW 09:26:15 10° SE visible
09 Mar - 11:07:09 10° SW 11:08:36 12° SSW 11:10:03 10° S visible
10 Mar - 05:22:44 10° SW 05:26:35 24° SSE 05:30:05 10° ESE night (unlit)
10 Mar - 07:08:41 10° WSW 07:12:48 39° S 07:16:37 10° ESE night (unlit)
10 Mar - 08:55:21 10° WSW 08:58:59 30° SSW 09:02:32 10° SE visible
10 Mar - 10:43:34 10° SW 10:44:53 11° SSW 10:46:12 10° S visible
11 Mar - 04:58:49 10° SW 05:02:51 25° SSE 05:06:29 10° ESE night (unlit)
11 Mar - 06:44:50 10° WSW 06:49:06 40° S 06:52:58 10° ESE night (unlit)
11 Mar - 08:31:35 10° WSW 08:35:17 30° SSW 08:38:50 10° SE night (unlit)
11 Mar - 10:19:55 10° SW 10:21:09 11° SSW 10:22:24 10° SSW visible
12 Mar - 04:34:52 10° SW 04:39:06 26° SSE 04:42:52 10° ESE night (unlit)
12 Mar - 06:20:58 10° WSW 06:25:22 41° S 06:29:19 10° ESE night (unlit)
12 Mar - 08:07:47 10° WSW 08:11:35 30° SSW 08:15:09 10° SE night (unlit)
12 Mar - 09:56:13 10° SW 09:57:26 11° SSW 09:58:39 10° SSW visible
13 Mar - 02:28:29 10° SSE 02:29:11 10° SSE 02:29:54 10° SE visible
13 Mar - 04:10:53 10° SW 04:15:19 27° SSE 04:19:15 10° ESE night (unlit)
13 Mar - 05:57:04 10° WSW 06:01:38 42° S 06:05:41 10° ESE night (unlit)
13 Mar - 07:43:58 10° WSW 07:47:51 31° SSW 07:51:30 10° SE night (unlit)
13 Mar - 09:32:27 10° SW 09:33:41 11° SSW 09:34:56 10° SSW night (unlit)
